Date String (YYYY-MM-DD hh:mm:ss) UTC,Instrument flags,Ambient pressure (hPa),Sample flow (lpm),Bypass flow (lpm),Sample temperature (°C),Ambient temperature (°C),ASC tube jacket temperature (°C),LED temperature (°C),Box temperature (°C),Sample RH (%),Span deviation,Mass concentration (μg/m³),Mass concentration (μg/m³),Mass concentration (μg/m³)
DateTimeUTC,F1_M11,P_M11,Q1_M11,Q2_M11,T1_M11,T2_M11,T3_M11,T4_M11,T5_M11,U1_M11,ZSPAN_M11,X0_M11,X2_M11,X1_M11
2021-10-24 02:00:00,,0817.3,5.01,0.00,29.9,29.2,00.0,39.0,31.8,10.8,0003.7,0033.53,0010.24,0007.11
2021-10-24 02:01:00,,0817.3,5.01,0.00,30.0,29.2,00.0,39.0,31.8,10.8,0002.9,0031.85,0010.23,0007.20
2021-10-24 02:02:00,,0817.3,4.99,0.00,30.0,29.2,00.0,39.0,31.7,10.8,0001.3,0033.45,0010.33,0007.29
2021-10-24 02:03:00,,0817.3,5.00,0.00,30.0,29.2,00.0,39.0,31.7,10.8,0000.9,0034.54,0010.42,0007.36
2021-10-24 02:04:00,,0817.4,5.01,0.00,29.9,29.2,00.0,39.0,31.7,10.8,0000.8,0034.11,0010.51,0007.44
2021-10-24 02:05:00,,0817.4,5.00,0.00,29.9,29.2,00.0,39.0,31.7,10.8,0001.4,0035.22,0010.63,0007.51
2021-10-24 02:06:00,,0817.5,5.00,0.00,29.9,29.1,00.0,39.0,31.7,10.8,0001.3,0034.90,0010.73,0007.59
2021-10-24 02:07:00,,0817.4,5.00,0.00,29.9,29.1,00.0,39.0,31.7,10.9,0001.9,0035.51,0010.85,0007.66
2021-10-24 02:08:00,,0817.5,5.00,0.00,29.9,29.1,00.0,39.0,31.7,10.8,0002.7,0036.60,0010.95,0007.68
2021-10-24 02:09:00,,0817.5,5.00,0.00,29.9,29.1,00.0,39.0,31.7,10.7,0003.0,0037.68,0011.04,0007.71
2021-10-24 02:10:00,,0817.5,5.00,0.00,29.9,29.1,00.0,39.0,31.7,10.7,0002.7,0037.53,0011.02,0007.73
2021-10-24 02:11:00,,0817.5,5.01,0.00,29.9,29.1,00.0,39.0,31.7,10.7,0002.5,0038.27,0010.98,0007.72
2021-10-24 02:12:00,,0817.6,5.00,0.00,29.9,29.1,00.0,39.0,31.7,10.6,0002.8,0039.23,0011.00,0007.70
2021-10-24 02:13:00,,0817.6,5.00,0.00,29.9,29.2,00.0,39.0,31.8,10.7,0002.8,0038.90,0011.02,0007.69
2021-10-24 02:14:00,,0817.6,5.00,0.00,30.0,29.2,00.0,39.0,31.7,10.7,0002.5,0038.24,0011.03,0007.68
2021-10-24 02:15:00,,0817.6,5.00,0.00,30.0,29.2,00.0,39.0,31.8,10.7,0002.5,0038.13,0011.01,0007.65
2021-10-24 02:16:00,,0817.6,5.00,0.00,30.0,29.3,00.0,39.0,31.8,10.5,0002.5,0038.95,0010.96,0007.63
2021-10-24 02:17:00,,0817.7,5.00,0.00,30.0,29.3,00.0,39.0,31.8,10.5,0003.2,0039.31,0010.85,0007.60
2021-10-24 02:18:00,,0817.7,5.00,0.00,30.0,29.3,00.0,39.1,31.9,10.4,0003.5,0039.57,0010.63,0007.53
2021-10-24 02:19:00,,0817.6,5.00,0.00,30.0,29.3,00.0,39.1,31.9,10.5,0002.8,0037.66,0010.32,0007.33
2021-10-24 02:20:00,,0817.6,5.00,0.00,30.0,29.3,00.0,39.1,31.8,10.5,0001.4,0035.55,0009.74,0006.95
2021-10-24 02:21:00,,0817.6,5.00,0.00,30.0,29.3,00.0,39.1,31.7,10.6,0000.4,0033.35,0009.26,0006.60
2021-10-24 02:22:00,,0817.6,4.99,0.00,30.0,29.3,00.0,39.1,31.8,10.8,0000.2,0030.61,0008.68,0006.18
2021-10-24 02:23:00,,0817.6,5.01,0.00,30.0,29.3,00.0,39.1,31.7,11.0,0000.0,0027.86,0007.96,0005.68
2021-10-24 02:24:00,,0817.6,4.99,0.00,30.0,29.3,00.0,39.1,31.7,11.0,0000.0,0025.10,0007.19,0005.16
2021-10-24 02:25:00,,0817.6,5.00,0.00,30.0,29.3,00.0,39.1,31.7,10.9,0000.0,0022.42,0006.43,0004.67
2021-10-24 02:26:00,,0817.5,5.00,0.00,30.0,29.2,00.0,39.1,31.7,11.0,0000.0,0019.40,0005.69,0004.16
2021-10-24 02:27:00,,0817.6,5.02,0.00,30.0,29.2,00.0,39.1,31.7,11.1,0000.0,0016.22,0004.90,0003.66
2021-10-24 02:28:00,,0817.5,4.99,0.00,30.0,29.2,00.0,39.1,31.7,11.1,0000.0,0013.62,0004.17,0003.15
2021-10-24 02:29:00,,0817.5,5.00,0.00,30.0,29.2,00.0,39.1,31.7,11.0,0000.0,0010.91,0003.55,0002.41
2021-10-24 02:30:00,,0817.5,5.01,0.00,30.0,29.2,00.0,39.1,31.8,11.0,0000.0,0009.85,0003.04,0001.84
2021-10-24 02:31:00,,0817.6,4.99,0.00,30.0,29.2,00.0,39.1,31.7,11.0,0000.0,0008.91,0002.65,0001.60
2021-10-24 02:32:00,,0817.6,4.99,0.00,30.0,29.2,00.0,39.1,31.7,11.0,0000.0,0007.88,0002.15,0001.31
2021-10-24 02:33:00,,0817.6,4.99,0.00,30.0,29.2,00.0,39.1,31.7,10.9,0000.0,0007.58,0001.95,0001.18
2021-10-24 02:34:00,,0817.7,4.99,0.00,30.0,29.2,00.0,39.1,31.7,10.9,0000.0,0007.54,0001.90,0001.17
2021-10-24 02:35:00,,0817.7,5.00,0.00,30.0,29.2,00.0,39.1,31.7,11.0,0000.0,0007.35,0001.82,0001.16
2021-10-24 02:36:00,,0817.7,5.00,0.00,29.9,29.1,00.0,39.1,31.6,11.2,0000.0,0007.93,0001.78,0001.16
2021-10-24 02:37:00,,0817.7,5.01,0.00,29.9,29.1,00.0,39.1,31.6,11.2,0000.0,0008.00,0001.76,0001.16
2021-10-24 02:38:00,,0817.7,4.99,0.00,29.9,29.1,00.0,39.1,31.6,11.3,0000.0,0006.85,0001.73,0001.14
2021-10-24 02:39:00,,0817.8,4.99,0.00,29.9,29.1,00.0,39.1,31.5,11.3,0000.0,0007.16,0001.72,0001.13
2021-10-24 02:40:00,,0817.8,5.00,0.00,29.9,29.1,00.0,39.1,31.6,11.3,0000.0,0007.38,0001.72,0001.13
2021-10-24 02:41:00,,0817.8,5.00,0.00,29.9,29.1,00.0,39.1,31.6,11.3,0000.0,0006.41,0001.73,0001.12
2021-10-24 02:42:00,,0817.8,4.99,0.00,29.9,29.1,00.0,39.1,31.7,11.3,0000.0,0005.52,0001.73,0001.11
2021-10-24 02:43:00,,0817.8,5.02,0.00,29.9,29.1,00.0,39.1,31.6,11.3,0000.0,0005.31,0001.71,0001.09
2021-10-24 02:44:00,,0817.7,4.99,0.00,29.9,29.1,00.0,39.1,31.6,11.4,0000.0,0005.38,0001.75,0001.07
2021-10-24 02:45:00,,0817.8,4.99,0.00,29.9,29.1,00.0,39.1,31.6,11.4,0000.0,0005.36,0001.76,0001.07
2021-10-24 02:46:00,,0817.7,5.01,0.00,29.8,29.0,00.0,39.0,31.6,11.5,0000.0,0005.39,0001.78,0001.07
2021-10-24 02:47:00,,0817.8,4.99,0.00,29.8,29.0,00.0,39.0,31.5,11.5,0000.0,0004.45,0001.79,0001.07
2021-10-24 02:48:00,,0817.8,4.99,0.00,29.9,29.1,00.0,39.0,31.5,11.5,0000.0,0004.01,0001.77,0001.07
2021-10-24 02:49:00,,0817.8,4.99,0.00,29.9,29.1,00.0,39.0,31.5,11.4,0000.0,0004.13,0001.82,0001.07
2021-10-24 02:50:00,,0817.8,5.01,0.00,29.9,29.1,00.0,39.0,31.6,11.4,0000.0,0003.70,0001.83,0001.07
2021-10-24 02:51:00,,0817.9,5.00,0.00,29.9,29.1,00.0,39.0,31.7,11.4,0000.0,0003.33,0001.84,0001.08
2021-10-24 02:52:00,,0817.9,4.99,0.00,29.9,29.1,00.0,39.0,31.6,11.5,0000.0,0003.34,0001.88,0001.10
2021-10-24 02:53:00,,0817.9,4.99,0.00,29.8,29.0,00.0,39.0,31.6,11.6,0000.0,0003.26,0001.85,0001.11
2021-10-24 02:54:00,,0817.9,5.01,0.00,29.8,29.0,00.0,39.0,31.6,11.7,0000.0,0003.26,0001.86,0001.11
2021-10-24 02:55:00,,0817.9,5.00,0.00,29.8,29.0,00.0,39.0,31.6,11.7,0000.0,0003.45,0001.84,0001.11
2021-10-24 02:56:00,,0817.9,4.99,0.00,29.9,29.1,00.0,39.0,31.6,11.7,0000.0,0004.76,0001.82,0001.11
2021-10-24 02:57:00,,0818.0,5.00,0.00,29.9,29.1,00.0,39.0,31.7,11.7,0000.0,0004.79,0001.82,0001.10
2021-10-24 02:58:00,,0818.0,5.01,0.00,29.9,29.2,00.0,39.0,31.7,11.7,0000.0,0004.78,0001.82,0001.10
2021-10-24 02:59:00,,0818.0,5.01,0.00,29.9,29.2,00.0,39.0,31.7,11.7,0000.0,0004.88,0001.86,0001.11
